User: anonymous
Location: Unspecified
(0.0000°N, 0.0000°E)
Time: 13:53:24
(UTC+00:00)
Language:

Snapshot - Orbit

View from above orbital plane
View from above orbital plane
View from above satellite
View from above satellite

Ground track
Ground track

The orbit data is extracted from the following two-line orbital elements,

1 01314U 65027A   14212.73907433 -.00000198  00000-0 -76599-3 0  6586
2 01314 090.2896 255.9259 0032020 082.5228 054.5998 12.91736387 71315
Epoch (UTC): 31 July 2014 17:44:16
Eccentricity: 0.0032020
inclination: 90.2896°
perigee height: 1270 km
apogee height: 1319 km
right ascension of ascending node: 255.9259°
argument of perigee: 82.5228°
revolutions per day: 12.91736387
mean anomaly at epoch: 54.5998°
orbit number at epoch: 7131

The dashed part of the orbit path shows where the satellite is in the earth's shadow,  

DLR